Torna al catalogo

STARLINK-34030

AttivoComunicazioniVLEO
NORAD 64030·PAYLOAD·🇺🇸 United States

Lanciato May 16, 2025 da Vandenberg Space Force Base

Loading…

Prossimi Passaggi (prossime 24 ore)

TLE

AggiornatoSource: CelesTrak SupGP

Epoca: Sep 15, 2026, 03:39 UTC

1 64030C 25102J   26258.15256944  .00098672  00000+0  34317-2 0  2581
2 64030  70.0012 355.1565 0003627 265.0982  32.3610 15.29535590    15

Traccia STARLINK-34030 in tempo reale con AllMySat

Download on the App Store